Tracking 28081 objects as of 26-Sep-2023
HD Live streaming from Space Station
objects crossing your sky now

STARLINK-1617

Track STARLINK-1617 now!
10-day predictions
STARLINK-1617 is classified as:


NORAD ID: 46350
Int'l Code: 2020-062AB
Perigee: 553.3 km
Apogee: 555.2 km
Inclination: 53.1 °
Period: 95.6 minutes
Semi major axis: 6925 km
RCS: Unknown
Launch date: September 3, 2020
Source: United States (US)
Launch site: AIR FORCE EASTERN TEST RANGE (AFETR)
Your satellite tracking list
Your tracking list is empty




NASA's NSSDC Master Catalog

Two Line Element Set (TLE):
1 46350U 20062AB  23268.80883785  .00023020  00000-0  15581-2 0  9995
2 46350  53.0531  78.3813 0001398 103.6802 256.4342 15.06428328169289
Source of the keplerian elements: AFSPC